Weather History for KYNG - March, 2013

Change the Weather History Date:

Friday, March 1, 2013

  Actual Average Record
Temperature  
Mean Temperature 28 °F 32 °F  
Max Temperature 30 °F 40 °F 68 °F (1939)
Min Temperature 25 °F 23 °F -2 °F (1980)
Degree Days  
Heating Degree Days 37 33  
Month to date heating degree days 37 33  
Since 1 July heating degree days 4479 4681  
Cooling Degree Days 0 0  
Month to date cooling degree days 0 0  
Year to date cooling degree days 0 0  
Moisture  
Dew Point 22 °F    
Average Humidity 80    
Maximum Humidity 85    
Minimum Humidity 75    
Precipitation  
Precipitation 0.02 in 0.09 in 1.53 in (1954)
Month to date precipitation 0.02 0.09  
Year to date precipitation 4.32 4.79  
Snow  
Snow 0.20 in 0.40 in - ()
Month to date snowfall 0.2 0.4  
Since 1 July snowfall 60.6 49.2  
Snow Depth 0.00 in    
Sea Level Pressure  
Sea Level Pressure 29.93 in    
Wind  
Wind Speed 10 mph (NW)    
Max Wind Speed 17 mph    
Max Gust Speed 22 mph    
Visibility 8 miles    
Events Snow    
T = Trace of Precipitation, MM = Missing Value Source: NWS Daily Summary

Daily Weather History Graph

Daily Weather History Graph

Search for Another Location

Airport or City:

Trip Planner

Search our weather history database for the weather conditions in past years. The results will help you decide how hot, cold, wet, or windy it might be!

Date:

Astronomy

Mar. 01, 2013 Rise Set
Actual Time 6:56 AM EST 6:13 PM EST
Civil Twilight 6:29 AM EST 6:41 PM EST
Nautical Twilight 5:57 AM EST 7:13 PM EST
Astronomical Twilight 5:25 AM EST 7:45 PM EST
Moon 10:49 PM EST (3/1) 8:39 AM EST (3/1)
Length of Visible Light 12h 12m
Length of Day
11h 17m
Waning Gibbous, 83% of the Moon is Illuminated
Mar 1
Waning Gibbous
Mar 4
Last Quarter
Mar 11
New
Mar 19
First Quarter
Mar 27
Full

Hourly Weather History & Observations

Time (EST) Temp. Windchill Dew Point Humidity Pressure Visibility Wind Dir Wind Speed Gust Speed Precip Events Conditions
12:51 AM 30.0 °F 20.0 °F 27.0 °F 88% 29.85 in 7.0 mi NW 12.7 mph - 0.00 in   Light Freezing Drizzle
1:08 AM 30.2 °F 20.8 °F 26.6 °F 86% 29.82 in 10.0 mi NW 11.5 mph - 0.00 in   Overcast
1:51 AM 28.9 °F 20.4 °F 26.1 °F 89% 29.87 in 10.0 mi NW 9.2 mph - 0.00 in   Overcast
2:24 AM 28.4 °F 19.1 °F 24.8 °F 86% 29.83 in 10.0 mi WNW 10.4 mph - N/A   Overcast
2:51 AM 28.9 °F 21.1 °F 25.0 °F 85% 29.87 in 9.0 mi WNW 8.1 mph - 0.00 in Snow Light Snow
3:51 AM 28.9 °F 19.8 °F 25.0 °F 85% 29.87 in 9.0 mi NW 10.4 mph - 0.00 in Snow Light Snow
4:51 AM 28.9 °F 21.1 °F 25.0 °F 85% 29.88 in 9.0 mi NNW 8.1 mph - 0.00 in Snow Light Snow
5:51 AM 28.0 °F 18.1 °F 24.1 °F 85% 29.88 in 3.0 mi NNW 11.5 mph - 0.00 in Snow Light Snow
6:51 AM 27.0 °F 16.7 °F 21.9 °F 81% 29.90 in 9.0 mi NNW 11.5 mph - N/A Snow Light Snow
7:39 AM 26.6 °F 17.5 °F 23.0 °F 86% 29.87 in 3.0 mi NNW 9.2 mph - 0.00 in Snow Light Snow
7:51 AM 26.1 °F 17.6 °F 23.0 °F 88% 29.92 in 3.0 mi NNW 8.1 mph - 0.00 in Snow Light Snow
8:41 AM 26.6 °F 17.5 °F 23.0 °F 86% 29.90 in 5.0 mi NNW 9.2 mph - 0.00 in Snow Light Snow
8:51 AM 26.1 °F 16.2 °F 21.9 °F 84% 29.94 in 5.0 mi NW 10.4 mph - 0.00 in Snow Light Snow
9:51 AM 26.1 °F 15.6 °F 21.9 °F 84% 29.95 in 7.0 mi NNW 11.5 mph - 0.00 in Snow Light Snow
10:51 AM 26.1 °F 16.2 °F 21.0 °F 81% 29.96 in 7.0 mi NW 10.4 mph - 0.00 in Snow Light Snow
11:51 AM 27.0 °F 17.3 °F 21.0 °F 78% 29.97 in 9.0 mi NNW 10.4 mph - 0.00 in Snow Light Snow
12:51 PM 28.0 °F 17.0 °F 21.9 °F 78% 29.96 in 9.0 mi NNW 13.8 mph - 0.00 in Snow Light Snow
1:12 PM 26.6 °F 16.8 °F 21.2 °F 80% 29.92 in 9.0 mi WNW 10.4 mph - 0.00 in Snow Light Snow
1:51 PM 27.0 °F 17.3 °F 21.9 °F 81% 29.96 in 9.0 mi WNW 10.4 mph - 0.00 in Snow Light Snow
2:26 PM 28.4 °F 19.1 °F 21.2 °F 74% 29.91 in 9.0 mi NW 10.4 mph - N/A Snow Light Snow
2:51 PM 27.0 °F 17.3 °F 21.0 °F 78% 29.96 in 9.0 mi NW 10.4 mph - 0.00 in Snow Light Snow
3:11 PM 26.6 °F 15.7 °F 21.2 °F 80% 29.91 in 9.0 mi NNW 12.7 mph - 0.00 in Snow Light Snow
3:51 PM 27.0 °F 17.3 °F 21.0 °F 78% 29.96 in 9.0 mi NW 10.4 mph - 0.00 in   Overcast
4:31 PM 26.6 °F 19.1 °F 21.2 °F 80% 29.92 in 10.0 mi NNW 6.9 mph - N/A   Overcast
4:51 PM 26.1 °F 16.8 °F 19.9 °F 78% 29.97 in 10.0 mi WNW 9.2 mph - N/A   Overcast
5:51 PM 25.0 °F 14.2 °F 19.0 °F 78% 29.98 in 10.0 mi NNW 11.5 mph - N/A   Overcast
6:51 PM 25.0 °F 14.8 °F 19.0 °F 78% 30.00 in 10.0 mi NW 10.4 mph - N/A   Overcast
7:51 PM 25.0 °F 13.6 °F 19.0 °F 78% 30.00 in 10.0 mi NNW 12.7 mph - N/A   Overcast
8:26 PM 24.8 °F 15.3 °F 19.4 °F 80% 29.96 in 10.0 mi NNW 9.2 mph - N/A   Overcast
8:51 PM 25.0 °F 17.1 °F 19.9 °F 81% 30.01 in 10.0 mi NNW 6.9 mph - N/A   Overcast
9:51 PM 25.0 °F 18.1 °F 19.9 °F 81% 30.01 in 10.0 mi NW 5.8 mph - N/A   Overcast
10:51 PM 25.0 °F 17.1 °F 19.9 °F 81% 30.00 in 10.0 mi NW 6.9 mph - N/A   Overcast
11:22 PM 24.8 °F 15.3 °F 19.4 °F 80% 29.95 in 10.0 mi NNW 9.2 mph - 0.00 in Snow Light Snow
11:37 PM 24.8 °F 14.0 °F 19.4 °F 80% 29.95 in 9.0 mi NNW 11.5 mph - 0.00 in Snow Light Snow
11:51 PM 25.0 °F 14.8 °F 19.9 °F 81% 29.99 in 9.0 mi NNW 10.4 mph - 0.00 in Snow Light Snow